COSMOS 1275 DEB, 15780

Orbit data source: Space-Track

COSMOS 1275 DEB, 15780 is space debris in LEO originally from a launch on Thu, 04 Jun 1981 UTC launched from the Plesetsk Missile And Space Complex (PKMTR). Debris objects in space refer to the collection of defunct objects orbiting the Earth. Examples of debris include non-operational satellites, rocket bodies, and fragments generated from explosions, collisions, or faulty payload assembly.

Loading next visibility...
Identifier
15780, 1981-053KE
Orbit
LEO
Country
Flag of CISCIS
Related business
Manufacturer
Unknown
Mission
Spacecraft
Bus & Motor
Unknown
Mass
Unknown
Launch date (UTC)
1981-06-04 (44 years ago)
Launch vehicle
Unknown
Launch site
Plesetsk Missile And Space Complex (PKMTR)
Object type
Payload
Rocket body
Debris
Shape & HBR
Unknown shape, 0.1 m
Radar Cross Section
Small (<0.1 m²)

Expand to show TLE details & history
Last TLE update: 13 hours ago

TLE from 13 hours ago
0 COSMOS 1275 DEB
1 15780U 81053KE  25286.47045755  .00002251  00000-0  16182-2 0  9998
2 15780  82.8125  83.6503 0053504 134.7594 280.9180 13.95816420 45808
Epoch: 2025-10-13T11:17Z
TLE epoch observation values (Epoch: 2025-10-13T11:17:27.532Z)
Latitude
54.53342°
Longitude
-97.84527°
Altitude
910.134 km
Speed
7.406 km/s
True Right ascension
06h 15m 10s
True Declination
54° 22' 27"
Sunlit
Object was in daylight at epoch
Visualization orbit readout
Latitude
Unknown
Longitude
Unknown
Altitude
Unknown
Speed
Unknown
Apparent Right ascension
Unknown
Apparent Declination
Unknown
Sunlit
N/A
Visualization observer readout
Local Sidereal Time
18:40:47
Azimuth
Unknown
Elevation
Unknown
Doppler factor
Unknown
Orbital elements
Apogee altitude
944.413 km
Perigee altitude
866.473 km
Semi-major axis
7,283.58 km
Eccentricity
0.00535
Inclination
82.8125°
RAAN
83.6503°
Arg. of periapsis
134.7594°
True anomaly
280.31523°
Mean anomaly
280.918°
Eccentric anomaly
280.61669°
Mean motion
3.49161 °/min
Orbital period
103.1 mins
BSTAR
0.0016182
Loading maneuver chart data...
Computing Atmospheric mass density...
Loading historical data...
Loading historical data...
Loading historical data...
Loading historical data...
Loading historical data...
Loading historical data...
Loading historical data...

Documentation

Showing up to 5 results
|